This demonstration page uses our WeatherBlox Daily Observations layout. Learn more.

41.55636, -103.73856

Hourly Observations for May 14, 2015

Temp ( °F °C ) Dew Point ( °F °C ) Humidity (%) Winds ( mph kmh ) Pressure ( in mb ) Visibility ( mi km ) Precip ( " mm )
12:07 am 00:07 Mostly Cloudy with Mist and Fog 48 9 46 8 94 94 Calm 29.91 1013 2.5 4.02336 0 0
12:11 am 00:11 Mostly Cloudy with Mist and Fog 48 9 46 8 94 94 Calm 29.91 1013 1.25 2.01168 0 0
12:20 am 00:20 Mostly Cloudy with Mist and Fog 48 9 46 8 94 94 Calm 29.91 1013 0.75 1.207008 0 0
12:36 am 00:36 Mostly Cloudy with Fog 46 8 46 8 100 100 ENE 3 6 29.91 1013 0.25 0.402336 0 0
12:53 am 00:53 Mostly Cloudy with Fog 46 8 45 7 93 93 Calm 29.91 1013 0.25 0.402336 0 0
1:06 am 01:06 Mostly Cloudy with Fog 46 8 45 7 93 93 Calm 29.91 1013 0.5 0.804672 0 0
1:23 am 01:23 Mostly Cloudy with Fog 45 7 45 7 100 100 Calm 29.94 1014 0.25 0.402336 0 0
1:51 am 01:51 Mostly Cloudy with Mist and Fog 46 8 45 7 93 93 WNW 5 7 29.91 1013 1 1.609344 0 0
1:53 am 01:53 Partly Cloudy with Mist and Fog 45 7 45 7 100 100 WNW 5 7 29.94 1014 1.25 2.01168 0 0
1:56 am 01:56 Mostly Cloudy with Mist and Fog 43 6 43 6 100 100 WNW 5 7 29.94 1014 0.75 1.207008 0 0
2:12 am 02:12 Clear with Mist and Fog 43 6 43 6 100 100 N 3 6 29.94 1014 1 1.609344 0 0
2:17 am 02:17 Mostly Cloudy with Mist and Fog 43 6 41 5 93 93 NNE 5 7 29.94 1014 0.75 1.207008 0 0
2:37 am 02:37 Mostly Cloudy with Fog 43 6 41 5 93 93 NW 5 7 29.94 1014 0.5 0.804672 0 0
2:47 am 02:47 Mostly Clear with Mist and Fog 43 6 41 5 93 93 W 6 9 29.94 1014 1.5 2.414016 0 0
2:49 am 02:49 Mostly Clear with Mist and Fog 43 6 41 5 93 93 WNW 6 9 29.94 1014 3 4.828032 0 0
2:53 am 02:53 Mostly Clear 43 6 43 6 100 100 NW 6 9 29.94 1014 7 11.265408 0 0
3:53 am 03:53 Clear 41 5 39 4 93 93 WNW 5 7 29.97 1015 7 11.265408 0 0
4:10 am 04:10 Mostly Clear with Mist and Fog 41 5 39 4 93 93 W 5 7 29.97 1015 2.5 4.02336 0 0
4:30 am 04:30 Clear with Mist and Fog 41 5 39 4 93 93 WNW 6 9 29.97 1015 1.5 2.414016 0 0
4:37 am 04:37 Mostly Cloudy with Mist and Fog 39 4 39 4 100 100 NW 5 7 29.97 1015 0.75 1.207008 0 0
4:48 am 04:48 Mostly Cloudy with Fog 39 4 39 4 100 100 Calm 29.97 1015 0.5 0.804672 0 0
4:53 am 04:53 Mostly Cloudy with Mist and Fog 39 4 39 4 100 100 Calm 29.97 1015 0.75 1.207008 0 0
5:15 am 05:15 Mostly Cloudy with Fog 39 4 37 3 93 93 W 6 9 29.97 1015 0.25 0.402336 0 0
5:22 am 05:22 Mostly Cloudy with Fog 39 4 39 4 100 100 W 6 9 29.97 1015 0.5 0.804672 0 0
5:35 am 05:35 Mostly Cloudy with Mist and Fog 39 4 39 4 100 100 NW 7 11 29.97 1015 2 3.218688 0 0
5:38 am 05:38 Partly Cloudy with Mist and Fog 39 4 39 4 100 100 NW 8 13 29.97 1015 3 4.828032 0 0
5:53 am 05:53 Sunny with Mist and Fog 41 5 39 4 93 93 NW 7 11 29.97 1015 5 8.04672 0 0
6:53 am 06:53 Sunny 46 8 45 7 93 93 NW 7 11 29.91 1013 10 16.09344 0 0
7:53 am 07:53 Sunny 50 10 45 7 82 82 WNW 6 9 29.88 1012 10 16.09344 0 0
8:53 am 08:53 Sunny 55 13 46 8 72 72 N 3 6 29.88 1012 10 16.09344 0 0
9:53 am 09:53 Sunny 61 16 46 8 59 59 N 5 7 29.83 1010 10 16.09344 0 0
10:53 am 10:53 Sunny 66 19 48 9 52 52 Calm 29.77 1008 10 16.09344 0 0
11:53 am 11:53 Sunny 66 19 46 8 49 49 N 6 9 29.77 1008 10 16.09344 0 0
12:53 pm 12:53 Sunny 72 22 46 8 41 41 SSW 6 9 29.71 1006 10 16.09344 0 0
1:53 pm 13:53 Sunny 72 22 46 8 41 41 undefined N/A 29.71 1006 10 16.09344 0 0
2:53 pm 14:53 Sunny 72 22 46 8 41 41 undefined N/A 29.71 1006 10 16.09344 0 0
3:53 pm 15:53 Sunny 73 23 46 8 38 38 SE 6 9 29.68 1005 10 16.09344 0 0
4:53 pm 16:53 Sunny 75 24 45 7 34 34 N 6 9 29.65 1004 10 16.09344 0 0
5:53 pm 17:53 Sunny 73 23 45 7 36 36 E 8 13 29.62 1003 10 16.09344 0 0
6:53 pm 18:53 Mostly Sunny 72 22 46 8 41 41 E 12 19 29.65 1004 10 16.09344 0 0
7:53 pm 19:53 Mostly Sunny 66 19 48 9 52 52 E 10 17 29.68 1005 10 16.09344 0 0
8:53 pm 20:53 Clear 63 17 48 9 59 59 E 12 19 29.71 1006 10 16.09344 0 0
9:53 pm 21:53 Clear 59 15 48 9 68 68 ENE 12 19 29.77 1008 10 16.09344 0 0
10:53 pm 22:53 Mostly Clear 59 15 52 11 77 77 E 15 24 29.77 1008 10 16.09344 0 0
11:53 pm 23:53 Mostly Cloudy 59 15 50 10 72 72 E 15 24 29.77 1008 10 16.09344 0 0

Powered by AerisWeather